STARLINK-35867

Last updated on Mon Dec 15 2025 00:02:11 GMT+0000 (Coordinated Universal Time)

1 66791U 25278A 25348.25003472 -.01161498 00000+0 -58635-2 0 9998 2 66791 42.9972 242.8417 0001964 277.4625 94.7743 15.83107481 3202
UTC large
Height (km)
Speed (km/s)
/
Latitude / Longitude
Inclination (degrees)
Orbital Period (minutes)
Azimuth
Elevation
Range (km)
Doppler Factor

Next 0 passes for location: London (51.5072 / 0.1276)

Sorry there are no passes over London.